www.pogodaiklimat.ru

Погода и климат >> Архив погоды >> Россия >> Ростовская область >> Ростов-на-Дону


АРХИВ ПОГОДЫ в Ростове-на-Дону

Время (UTC), дата Ветер
(напр.,м/с)
 
Видим.   Явления Облачность Т
(С)
Тd
(С)
f
(%)
Тe
(С)
Тes
(С)
Комфортность P
(гПа)
Po
(гПа)
Тmin
(С)
Tmax
(С)
R
(мм)
R24
(мм)
S
(см)
12 11.10 н/о 3/0
[Ci fib]
+21.2 +3.6 31 1023.0 1013.2
15 11.10 н/о ясно +16.4 +2.9 40 1023.3 1013.4 +21.7
18 11.10 н/о ясно +14.8 +3.9 48 1024.6 1014.6
21 11.10 н/о ясно +13.3 +5.2 58 1026.3 1016.2
00 12.10 н/о ясно +11.4 +5.3 66 1026.8 1016.7
03 12.10 н/о ясно +10.0 +2.8 61 1028.6 1018.4 +9.9
06 12.10 н/о ясно +13.1 +1.7 46 1030.9 1020.8 +9.1
09 12.10 н/о ясно +15.5 -1.2 32 1032.3 1022.2
12 12.10 н/о ясно +16.3 -2.3 28 1032.0 1022.0
15 12.10 н/о ясно +13.4 -4.0 30 1032.1 1022.0 +16.6
18 12.10 н/о ясно +11.4 -4.1 34 1032.9 1022.7
21 12.10 н/о ясно +10.0 -3.6 38 1033.2 1022.9
00 13.10 н/о ясно +6.5 -2.1 54 1033.1 1022.7
03 13.10 н/о ясно +3.4 -2.0 68 1033.4 1022.9 +3.3
06 13.10 н/о ясно +11.0 -2.5 39 1033.6 1023.4
09 13.10 н/о ясно +14.5 -3.0 30 1032.7 1022.6
12 13.10 н/о ясно +16.9 -3.3 25 1030.7 1020.7
15 13.10 н/о ясно +11.9 +1.1 48 1030.0 1019.8 +17.2
18 13.10 н/о ясно +9.5 +1.6 58 1029.3 1019.1
21 13.10 н/о ясно +8.6 +1.8 62 1029.2 1018.9
00 14.10 н/о ясно +9.4 +0.9 55 1028.5 1018.3
03 14.10 н/о ясно +8.2 +1.4 62 1027.9 1017.6 +8.0
06 14.10 н/о 3/0
[Ac trans]
+13.3 +2.5 48 1027.9 1017.8
09 14.10 н/о 3/0
[Ci fib]
+19.0 +2.2 33 1026.5 1016.6
12 14.10 н/о 4/0
[Ci fib]
+20.7 +0.9 27 1025.4 1015.6
15 14.10 н/о 4/0
[Ci fib]
+15.0 +4.2 48 1025.3 1015.3 +21.1
18 14.10 н/о ясно +12.1 +4.4 59 1025.7 1015.6
21 14.10 н/о ясно +12.3 +4.6 59 1026.1 1016.0
00 15.10 н/о ясно +10.5 +4.3 65 1026.2 1016.0
03 15.10 н/о ясно +9.5 +4.4 70 1026.5 1016.3 +9.3
06 15.10 н/о 8/0
[Ci fib]
+14.9 +6.3 56 1027.1 1017.1 +8.2
09 15.10 н/о 3/0
[Ci fib]
+19.3 +5.9 41 1026.9 1017.0
12 15.10 н/о ясно +22.0 +5.4 34 1025.9 1016.1
15 15.10 н/о ясно +16.5 +6.9 53 1026.1 1016.2 +22.2
18 15.10 н/о ясно +14.6 +6.3 57 1026.9 1016.9
21 15.10 н/о ясно +13.6 +7.4 66 1026.6 1016.5
00 16.10 н/о ясно +11.6 +7.4 75 1026.7 1016.6
03 16.10 н/о ясно +10.6 +7.7 82 1027.6 1017.4 +10.2
06 16.10 н/о ясно +17.1 +9.0 59 1028.2 1018.3
09 16.10 н/о ясно +20.8 +9.6 49 1027.5 1017.7
12 16.10 н/о ясно +22.7 +9.8 44 1026.2 1016.5
15 16.10 н/о 3/0
[Ci fib]
+18.7 +9.9 57 1026.1 1016.2 +22.9
18 16.10 н/о ясно +16.6 +10.3 66 1026.5 1016.6
21 16.10 н/о ясно +13.2 +9.5 78 1026.8 1016.7
00 17.10 н/о ясно +11.1 +8.8 86 1026.7 1016.6
03 17.10 н/о ясно +11.0 +8.4 84 1026.6 1016.5 +10.8
06 17.10 н/о 3/0
[Ci fib]
+15.5 +8.2 62 1026.9 1016.9
09 17.10 н/о ясно +19.6 +8.5 49 1026.3 1016.5
12 17.10 н/о ясно +21.3 +7.6 41 1024.7 1014.9
15 17.10 н/о ясно +18.1 +7.2 49 1024.3 1014.4 +21.5
18 17.10 н/о ясно +15.8 +7.4 57 1024.3 1014.3
21 17.10 н/о ясно +11.5 +7.5 76 1024.4 1014.3
00 18.10 штиль 0 10 км ясно +9.9 +7.8 87 +9 +9 тепло 1024.2 1014.0
03 18.10 н/о ясно +10.0 +8.1 88 1023.9 1013.7 +9.1
06 18.10 н/о ясно +15.4 +9.2 67 1024.2 1014.2

 

Местоположение метеостанции Ростов-на-Дону (Ростовская область, Россия): широта 47.27 долгота 39.82 высота над уровнем моря 75 м.

В архиве по умолчанию представлена погода в Ростове-на-Дону за последнюю неделю. Архивные данные за месяц целиком и за предыдущие месяцы, начиная с января 2011 года, Вы можете получить, выбрав интересующий диапазон дат из раскрывающегося списка и нажав кнопку "Ввод!".


*Определитесь, кто Вы:
робот инопланетянин человек

Внимание! Время в таблицах - всемирное. Для получения местного времени необходимо прибавить поправку, которая в Ростове-на-Дону равна 3 ч.

Смотрите также архив погоды в соседних городах и на ближайших метеорологических станциях:

Погода в Аэропорту Платов (Ростовская область, Россия) (26 км)
Погода в Шахтах (Ростовская область, Россия) (59 км)
Погода в Зерноград (Ростовская область, Россия) (60 км)
Погода в Таганроге (Ростовская область, Россия) (70 км)
Погода в Матвеевом Кургане (Ростовская область, Россия) (78 км)
Погода в Семикаракорске (Ростовская область, Россия) (81 км)
Погода в Маргаритово (Ростовская область, Россия) (81 км)
Погода в Кущевской (Краснодарский край, Россия) (84 км)
Погода в Константиновске (Ростовская область, Россия) (102 км)
Погода в Староминская (Краснодарский край, Россия) (102 км)

Пояснения к столбцам:

Ветер - указаны скорость ветра в м/с - средняя за 10 мин, порывы в срок и между сроками (в фигурных скобках) и направление, откуда дует ветер: С - северный, СВ - северо-восточный, В - восточный, ЮВ - юго-восточный, Ю - южный, ЮЗ - юго-западный, З - западный, СЗ - северо-западный.
Видимость - горизонтальная дальность видимости в метрах или километрах. При видимости от 1 до 10 км при отсутствии осадков обычно наблюдается дымка, при ухудшении видимости до 1 км и менее - туман. В сухую погоду видимость может ухудшаться дымом, пылью или мглою.
Явления - указаны атмосферные явления, наблюдавшиеся в срок или в последний час перед сроком; фигурными скобками обозначены явления, наблюдавшиеся между сроками (за 1-3 часа до срока); квадратными скобками обозначены град или гололедные отложения с указанием их диаметра в мм.
Облачность - указаны через наклонную черту общая и нижняя облачность в баллах и высота нижней границы облаков в метрах; квадратными скобками обозначены формы облаков: Ci - перистые, Cs - перисто-слоистые, Cc - перисто-кучевые, Ac - высококучевые, As - высокослоистые, Sc - слоисто-кучевые, Ns - слоисто-дождевые, Cu - кучевые, Cb - кучево-дождевые. Подробнее классификацию облаков см. в Атласе облаков (PDF).
T - Температура воздуха - температура, измеренная на высоте 2 м над землей.
Td - Температура точки росы - температура, при понижении до которой содержащийся в воздухе водяной пар достигнет насыщения.
f - Относительная влажность воздуха - влажноcть воздуха, измеренная на высоте 2 м над землей.
Te - Эффективная температура - температура, которую ощущает одетый по сезону человек в тени. Характеристика душности погоды. При расчете учитывается влияние влажности воздуха и скорости ветра на теплоощущения человека.
Tes - Эффективная температура на солнце - температура, которую ощущает человек, с поправкой на солнечный нагрев. Характеристика знойности погоды. Зависит от высоты солнца над горизонтом, облачности и скорости ветра. Ночью, в пасмурную погоду, а также при ветре 12 м/с и более поправка равна нулю.
P - Атмосферное давление - приведенное к уровню моря атмосферное давление.
Po - Атмосферное давление - измеренное на уровне метеостанции атмосферное давление.
Tmin - Минимальная температура - минимум температуры воздуха на высоте 2 м над землей.
Tmax - Максимальная температура - максимум температуры воздуха на высоте 2 м над землей.
R - Количество осадков - Количество выпавших осадков за период времени, мм. При наведении курсора мыши на число - период времени, за который выпало указанное количество осадков.
R24 - Количество осадков - Количество выпавших осадков за 24 часа, мм.
S - Снежный покров - Высота снежного покрова, см. При наведении курсора мыши на число - состояние снежного покрова и степень покрытия местности в баллах.